QPF
0.01 0.01 0.01 0.01 0.01 0.01 0.01 0.01 0.02 0.01 0.00 0.00 0.00 0.00 0.00 0.00 0.00 0.00 0.00 0.00 0.01 0.01 0.01 0.01 0.01 0.01 0.01 0.01 0.01 0.01 0.00 0.00 0.00 0.00 0.01 0.01 0.01 0.01 0.01 0.01 0.01 0.02 0.01
0.01 0.01 0.01 0.01 0.01 0.01 0.01 0.01 0.01 0.01 0.00 0.00 0.00 0.00 0.00 0.00 0.00 0.00 0.00 0.00 0.01 0.01 0.01 0.01 0.01 0.01 0.01 0.01 0.00 0.00 0.00 0.01 0.01 0.01 0.02 0.01 0.01 0.01 0.01 0.00 0.01 0.02 0.01
0.02 0.01 0.01 0.01 0.01 0.01 0.02 0.02 0.02 0.01 0.00 0.00 0.00 0.00 0.00 0.00 0.00 0.00 0.00 0.01 0.01 0.01 0.01 0.01 0.01 0.01 0.01 0.00 0.00 0.00 0.01 0.01 0.02 0.02 0.03 0.03 0.02 0.01 0.01 0.00 0.00 0.00 0.00
0.02 0.02 0.01 0.01 0.01 0.01 0.01 0.01 0.01 0.01 0.01 0.01 0.00 0.00 0.00 0.00 0.00 0.00 0.00 0.01 0.01 0.01 0.01 0.01 0.01 0.01 0.01 0.00 0.00 0.01 0.01 0.02 0.04 0.03 0.02 0.02 0.02 0.02 0.01 0.01 0.01 0.00 0.00
0.01 0.03 0.03 0.02 0.02 0.01 0.01 0.01 0.01 0.01 0.02 0.01 0.01 0.01 0.01 0.00 0.01 0.01 0.01 0.01 0.01 0.01 0.01 0.01 0.01 0.00 0.00 0.01 0.01 0.02 0.03 0.03 0.02 0.02 0.01 0.01 0.05 0.03 0.02 0.01 0.01 0.00 0.00
0.01 0.02 0.02 0.03 0.02 0.01 0.01 0.01 0.02 0.02 0.02 0.02 0.01 0.01 0.01 0.01 0.01 0.01 0.01 0.01 0.01 0.01 0.01 0.01 0.01 0.01 0.00 0.00 0.01 0.02 0.03 0.04 0.02 0.02 0.01 0.01 0.02 0.03 0.02 0.01 0.01 0.00 0.01
0.02 0.03 0.03 0.04 0.04 0.03 0.02 0.02 0.03 0.02 0.02 0.01 0.01 0.01 0.01 0.01 0.01 0.01 0.01 0.01 0.01 0.01 0.01 0.01 0.01 0.01 0.01 0.01 0.01 0.02 0.03 0.04 0.03 0.05 0.04 0.04 0.04 0.04 0.02 0.02 0.02 0.02 0.01
0.02 0.03 0.04 0.05 0.07 0.06 0.04 0.04 0.04 0.04 0.03 0.02 0.02 0.02 0.02 0.01 0.02 0.02 0.01 0.01 0.02 0.02 0.02 0.02 0.01 0.01 0.01 0.01 0.01 0.02 0.03 0.04 0.03 0.04 0.04 0.05 0.05 0.04 0.05 0.04 0.04 0.02 0.02
0.03 0.02 0.02 0.04 0.07 0.08 0.06 0.05 0.07 0.08 0.05 0.04 0.05 0.03 0.03 0.03 0.02 0.02 0.02 0.02 0.02 0.02 0.02 0.02 0.01 0.01 0.01 0.01 0.01 0.01 0.02 0.04 0.04 0.04 0.03 0.06 0.04 0.05 0.08 0.07 0.04 0.03 0.03
0.05 0.04 0.04 0.04 0.04 0.06 0.07 0.06 0.06 0.09 0.09 0.07 0.06 0.04 0.04 0.04 0.03 0.03 0.03 0.03 0.03 0.03 0.03 0.04 0.03 0.02 0.02 0.02 0.02 0.02 0.02 0.03 0.03 0.03 0.05 0.04 0.03 0.06 0.11 0.12 0.08 0.05 0.03
0.07 0.06 0.05 0.06 0.06 0.06 0.07 0.08 0.10 0.11 0.08 0.08 0.06 0.04 0.04 0.04 0.05 0.05 0.04 0.05 0.06 0.05 0.06 0.05 0.04 0.03 0.02 0.02 0.03 0.03 0.02 0.02 0.01 0.03 0.04 0.03 0.04 0.09 0.13 0.13 0.11 0.08 0.05
0.09 0.08 0.08 0.09 0.08 0.08 0.06 0.06 0.07 0.07 0.09 0.09 0.07 0.06 0.06 0.06 0.05 0.05 0.05 0.05 0.07 0.07 0.06 0.06 0.06 0.04 0.03 0.03 0.04 0.04 0.02 0.02 0.03 0.03 0.03 0.03 0.06 0.11 0.16 0.14 0.10 0.11 0.09
0.08 0.07 0.08 0.08 0.08 0.08 0.10 0.08 0.08 0.09 0.10 0.09 0.07 0.06 0.06 0.06 0.06 0.06 0.07 0.07 0.08 0.08 0.09 0.10 0.08 0.06 0.06 0.06 0.06 0.05 0.04 0.04 0.03 0.02 0.04 0.05 0.06 0.10 0.18 0.19 0.13 0.13 0.12
0.05 0.05 0.07 0.09 0.11 0.11 0.11 0.09 0.07 0.08 0.08 0.07 0.05 0.05 0.05 0.05 0.05 0.06 0.08 0.09 0.10 0.11 0.12 0.13 0.12 0.09 0.07 0.05 0.05 0.05 0.06 0.07 0.05 0.04 0.05 0.05 0.06 0.10 0.16 0.20 0.18 0.17 0.15
0.06 0.07 0.07 0.10 0.11 0.10 0.09 0.07 0.07 0.07 0.06 0.06 0.05 0.04 0.05 0.05 0.05 0.05 0.06 0.08 0.10 0.09 0.10 0.11 0.10 0.09 0.09 0.07 0.05 0.05 0.07 0.07 0.06 0.05 0.04 0.04 0.04 0.06 0.10 0.15 0.18 0.20 0.24
0.10 0.15 0.15 0.13 0.11 0.08 0.07 0.06 0.06 0.06 0.05 0.05 0.04 0.03 0.03 0.04 0.04 0.05 0.05 0.07 0.07 0.07 0.07 0.08 0.08 0.08 0.09 0.09 0.07 0.06 0.07 0.07 0.05 0.05 0.05 0.05 0.05 0.06 0.12 0.18 0.21 0.24 0.26
0.17 0.18 0.17 0.14 0.13 0.13 0.08 0.05 0.04 0.04 0.04 0.04 0.04 0.03 0.05 0.05 0.05 0.05 0.05 0.05 0.05 0.05 0.05 0.06 0.08 0.10 0.09 0.08 0.08 0.09 0.09 0.07 0.06 0.06 0.06 0.07 0.08 0.08 0.10 0.14 0.17 0.20 0.23
0.11 0.13 0.09 0.08 0.09 0.10 0.10 0.07 0.07 0.07 0.07 0.06 0.06 0.06 0.07 0.07 0.06 0.05 0.05 0.04 0.05 0.05 0.05 0.06 0.09 0.12 0.12 0.10 0.10 0.10 0.08 0.07 0.07 0.07 0.06 0.06 0.07 0.06 0.07 0.08 0.10 0.15 0.20
0.08 0.09 0.08 0.06 0.06 0.07 0.09 0.08 0.08 0.08 0.07 0.06 0.05 0.05 0.04 0.04 0.05 0.04 0.05 0.04 0.04 0.05 0.05 0.05 0.08 0.09 0.11 0.11 0.09 0.09 0.08 0.07 0.06 0.05 0.04 0.04 0.06 0.06 0.06 0.08 0.09 0.11 0.14
0.06 0.07 0.06 0.06 0.06 0.06 0.06 0.06 0.06 0.06 0.06 0.05 0.04 0.04 0.03 0.03 0.03 0.03 0.04 0.03 0.03 0.04 0.05 0.05 0.06 0.07 0.07 0.07 0.07 0.08 0.08 0.07 0.05 0.05 0.03 0.04 0.05 0.06 0.07 0.07 0.09 0.09 0.10
0.05 0.08 0.08 0.07 0.05 0.05 0.04 0.04 0.04 0.05 0.05 0.05 0.04 0.04 0.03 0.03 0.03 0.02 0.02 0.03 0.04 0.05 0.06 0.06 0.06 0.06 0.06 0.05 0.05 0.06 0.05 0.04 0.04 0.03 0.03 0.03 0.04 0.05 0.06 0.07 0.08 0.07 0.08
0.02 0.06 0.12 0.10 0.05 0.04 0.03 0.03 0.04 0.04 0.04 0.04 0.04 0.04 0.03 0.03 0.03 0.02 0.02 0.03 0.04 0.04 0.06 0.06 0.05 0.06 0.06 0.05 0.06 0.07 0.06 0.04 0.04 0.02 0.02 0.03 0.03 0.04 0.05 0.06 0.07 0.07 0.07
0.01 0.03 0.13 0.09 0.05 0.03 0.03 0.03 0.03 0.04 0.04 0.04 0.04 0.03 0.03 0.02 0.02 0.02 0.01 0.03 0.04 0.05 0.06 0.08 0.06 0.05 0.06 0.05 0.06 0.08 0.08 0.07 0.05 0.04 0.03 0.03 0.03 0.04 0.05 0.05 0.06 0.08 0.08
0.01 0.04 0.10 0.07 0.05 0.04 0.03 0.03 0.04 0.05 0.04 0.03 0.03 0.03 0.03 0.03 0.02 0.02 0.02 0.02 0.04 0.05 0.05 0.06 0.06 0.05 0.07 0.07 0.06 0.06 0.07 0.07 0.07 0.06 0.04 0.04 0.03 0.03 0.04 0.04 0.05 0.07 0.09
0.02 0.04 0.07 0.10 0.06 0.05 0.05 0.03 0.03 0.03 0.03 0.03 0.03 0.02 0.02 0.02 0.02 0.02 0.02 0.02 0.03 0.04 0.03 0.03 0.05 0.05 0.06 0.08 0.08 0.07 0.06 0.07 0.07 0.08 0.07 0.05 0.03 0.03 0.04 0.05 0.07 0.09 0.09
0.02 0.02 0.03 0.04 0.03 0.03 0.04 0.04 0.03 0.02 0.02 0.02 0.02 0.02 0.03 0.02 0.02 0.01 0.01 0.02 0.02 0.03 0.04 0.04 0.04 0.04 0.04 0.05 0.06 0.07 0.08 0.09 0.09 0.09 0.09 0.07 0.05 0.04 0.03 0.04 0.06 0.07 0.09
MSLP
1013.07 1013.14 1013.37 1013.77 1014.24 1014.72 1015.12 1015.42 1015.59 1015.68 1015.74 1015.85 1016.04 1016.35 1016.76 1017.21 1017.64 1017.99 1018.21 1018.30 1018.27 1018.19 1018.11 1018.08 1018.13 1018.27 1018.47 1018.67 1018.84 1018.95 1018.98 1018.95 1018.90 1018.87 1018.89 1018.99 1019.16 1019.38 1019.63 1019.86 1020.06 1020.20 1020.29
1013.20 1013.33 1013.63 1014.07 1014.58 1015.07 1015.47 1015.75 1015.89 1015.95 1015.98 1016.07 1016.26 1016.56 1016.97 1017.42 1017.84 1018.17 1018.35 1018.40 1018.34 1018.24 1018.15 1018.15 1018.23 1018.42 1018.66 1018.90 1019.10 1019.21 1019.23 1019.18 1019.11 1019.07 1019.09 1019.20 1019.39 1019.64 1019.91 1020.17 1020.37 1020.52 1020.61
1013.32 1013.50 1013.84 1014.32 1014.86 1015.37 1015.79 1016.07 1016.22 1016.28 1016.31 1016.39 1016.56 1016.85 1017.22 1017.63 1018.00 1018.27 1018.40 1018.41 1018.33 1018.23 1018.17 1018.20 1018.34 1018.57 1018.85 1019.12 1019.32 1019.42 1019.41 1019.34 1019.24 1019.18 1019.19 1019.30 1019.51 1019.78 1020.07 1020.34 1020.56 1020.72 1020.82
1013.41 1013.62 1013.99 1014.50 1015.06 1015.60 1016.05 1016.36 1016.53 1016.61 1016.66 1016.74 1016.91 1017.16 1017.49 1017.83 1018.13 1018.34 1018.42 1018.40 1018.32 1018.23 1018.22 1018.30 1018.50 1018.78 1019.08 1019.35 1019.54 1019.60 1019.56 1019.44 1019.31 1019.22 1019.23 1019.34 1019.56 1019.85 1020.15 1020.43 1020.66 1020.83 1020.93
1013.47 1013.69 1014.07 1014.59 1015.17 1015.74 1016.22 1016.57 1016.79 1016.91 1016.99 1017.09 1017.24 1017.47 1017.74 1018.03 1018.26 1018.41 1018.45 1018.42 1018.35 1018.32 1018.35 1018.50 1018.75 1019.06 1019.37 1019.63 1019.77 1019.78 1019.68 1019.51 1019.34 1019.24 1019.24 1019.36 1019.59 1019.88 1020.20 1020.49 1020.72 1020.89 1021.00
1013.49 1013.71 1014.09 1014.61 1015.20 1015.79 1016.30 1016.69 1016.96 1017.12 1017.24 1017.36 1017.52 1017.72 1017.96 1018.19 1018.38 1018.49 1018.52 1018.50 1018.48 1018.50 1018.60 1018.80 1019.09 1019.41 1019.71 1019.92 1020.00 1019.95 1019.79 1019.57 1019.37 1019.25 1019.26 1019.39 1019.63 1019.94 1020.26 1020.55 1020.78 1020.96 1021.08
1013.51 1013.71 1014.08 1014.60 1015.19 1015.79 1016.32 1016.74 1017.04 1017.24 1017.39 1017.53 1017.70 1017.89 1018.11 1018.31 1018.48 1018.58 1018.63 1018.64 1018.67 1018.75 1018.92 1019.16 1019.47 1019.78 1020.04 1020.19 1020.20 1020.07 1019.85 1019.60 1019.38 1019.27 1019.29 1019.45 1019.71 1020.04 1020.37 1020.66 1020.89 1021.06 1021.18
1013.57 1013.75 1014.10 1014.61 1015.19 1015.78 1016.30 1016.73 1017.05 1017.28 1017.45 1017.61 1017.78 1017.98 1018.19 1018.38 1018.55 1018.66 1018.74 1018.80 1018.89 1019.03 1019.23 1019.50 1019.81 1020.09 1020.28 1020.36 1020.30 1020.11 1019.84 1019.57 1019.36 1019.27 1019.32 1019.52 1019.82 1020.17 1020.52 1020.81 1021.04 1021.19 1021.30
1013.72 1013.88 1014.22 1014.71 1015.27 1015.82 1016.32 1016.73 1017.04 1017.26 1017.44 1017.60 1017.78 1017.98 1018.19 1018.40 1018.57 1018.71 1018.82 1018.93 1019.05 1019.23 1019.46 1019.73 1020.01 1020.24 1020.37 1020.38 1020.25 1020.01 1019.72 1019.45 1019.26 1019.22 1019.33 1019.58 1019.92 1020.30 1020.67 1020.97 1021.19 1021.34 1021.43
1014.01 1014.16 1014.49 1014.94 1015.46 1015.97 1016.42 1016.77 1017.04 1017.24 1017.40 1017.56 1017.74 1017.94 1018.16 1018.37 1018.55 1018.71 1018.84 1018.97 1019.12 1019.30 1019.53 1019.78 1020.02 1020.19 1020.26 1020.21 1020.03 1019.77 1019.48 1019.23 1019.09 1019.10 1019.27 1019.57 1019.97 1020.38 1020.77 1021.08 1021.30 1021.44 1021.52
1014.45 1014.61 1014.92 1015.34 1015.79 1016.23 1016.60 1016.88 1017.09 1017.24 1017.37 1017.51 1017.68 1017.88 1018.10 1018.30 1018.49 1018.64 1018.78 1018.91 1019.05 1019.22 1019.43 1019.64 1019.83 1019.95 1019.98 1019.88 1019.68 1019.41 1019.14 1018.93 1018.84 1018.91 1019.14 1019.49 1019.93 1020.37 1020.78 1021.10 1021.32 1021.46 1021.54
1015.05 1015.22 1015.51 1015.87 1016.26 1016.60 1016.88 1017.07 1017.20 1017.29 1017.38 1017.49 1017.65 1017.84 1018.04 1018.24 1018.41 1018.54 1018.66 1018.76 1018.87 1019.01 1019.17 1019.34 1019.49 1019.58 1019.57 1019.46 1019.26 1019.01 1018.78 1018.61 1018.57 1018.69 1018.95 1019.34 1019.79 1020.25 1020.66 1020.99 1021.22 1021.36 1021.45
1015.78 1015.95 1016.21 1016.52 1016.81 1017.05 1017.22 1017.31 1017.36 1017.39 1017.44 1017.53 1017.66 1017.84 1018.03 1018.20 1018.33 1018.43 1018.50 1018.55 1018.62 1018.71 1018.84 1018.97 1019.08 1019.15 1019.13 1019.03 1018.86 1018.65 1018.46 1018.33 1018.33 1018.47 1018.75 1019.14 1019.58 1020.03 1020.43 1020.75 1020.99 1021.14 1021.25
1016.58 1016.74 1016.97 1017.20 1017.40 1017.53 1017.59 1017.59 1017.56 1017.53 1017.55 1017.62 1017.74 1017.90 1018.06 1018.20 1018.29 1018.34 1018.35 1018.35 1018.36 1018.41 1018.49 1018.59 1018.70 1018.76 1018.77 1018.70 1018.57 1018.40 1018.25 1018.16 1018.17 1018.31 1018.57 1018.92 1019.32 1019.73 1020.11 1020.42 1020.65 1020.83 1020.96
1017.40 1017.54 1017.71 1017.86 1017.96 1017.99 1017.95 1017.87 1017.78 1017.72 1017.71 1017.77 1017.89 1018.03 1018.16 1018.26 1018.30 1018.29 1018.24 1018.18 1018.14 1018.15 1018.20 1018.29 1018.40 1018.49 1018.53 1018.51 1018.42 1018.31 1018.19 1018.12 1018.12 1018.23 1018.44 1018.73 1019.06 1019.41 1019.74 1020.02 1020.25 1020.44 1020.61
1018.17 1018.28 1018.39 1018.46 1018.46 1018.40 1018.28 1018.15 1018.03 1017.95 1017.94 1018.00 1018.10 1018.22 1018.33 1018.38 1018.37 1018.30 1018.19 1018.08 1018.00 1017.97 1018.01 1018.10 1018.22 1018.35 1018.43 1018.46 1018.43 1018.35 1018.26 1018.19 1018.17 1018.23 1018.37 1018.58 1018.83 1019.10 1019.37 1019.61 1019.83 1020.03 1020.22
1018.86 1018.94 1018.98 1018.97 1018.90 1018.77 1018.60 1018.44 1018.31 1018.24 1018.24 1018.30 1018.39 1018.49 1018.56 1018.56 1018.49 1018.36 1018.20 1018.04 1017.92 1017.87 1017.90 1018.00 1018.15 1018.30 1018.43 1018.50 1018.51 1018.47 1018.39 1018.32 1018.27 1018.28 1018.35 1018.48 1018.65 1018.84 1019.05 1019.25 1019.44 1019.63 1019.83
1019.47 1019.50 1019.49 1019.42 1019.29 1019.12 1018.94 1018.78 1018.66 1018.61 1018.63 1018.69 1018.77 1018.84 1018.85 1018.80 1018.66 1018.47 1018.25 1018.04 1017.89 1017.82 1017.84 1017.95 1018.11 1018.28 1018.44 1018.54 1018.59 1018.57 1018.51 1018.43 1018.36 1018.33 1018.34 1018.41 1018.51 1018.65 1018.79 1018.95 1019.11 1019.28 1019.46
1020.00 1020.00 1019.94 1019.83 1019.68 1019.51 1019.34 1019.20 1019.12 1019.09 1019.12 1019.18 1019.24 1019.26 1019.21 1019.08 1018.88 1018.62 1018.34 1018.08 1017.90 1017.80 1017.80 1017.90 1018.05 1018.23 1018.40 1018.52 1018.58 1018.58 1018.53 1018.46 1018.39 1018.34 1018.33 1018.36 1018.42 1018.51 1018.62 1018.74 1018.86 1018.99 1019.13
1020.48 1020.45 1020.37 1020.25 1020.10 1019.95 1019.82 1019.72 1019.68 1019.68 1019.72 1019.77 1019.78 1019.74 1019.62 1019.41 1019.12 1018.79 1018.45 1018.15 1017.92 1017.78 1017.76 1017.82 1017.95 1018.11 1018.27 1018.38 1018.45 1018.46 1018.42 1018.37 1018.31 1018.28 1018.27 1018.30 1018.36 1018.44 1018.53 1018.62 1018.70 1018.78 1018.85
1020.93 1020.90 1020.82 1020.70 1020.58 1020.46 1020.38 1020.34 1020.34 1020.37 1020.40 1020.42 1020.38 1020.27 1020.06 1019.77 1019.40 1019.00 1018.59 1018.23 1017.95 1017.77 1017.70 1017.71 1017.80 1017.92 1018.04 1018.13 1018.19 1018.20 1018.19 1018.17 1018.15 1018.15 1018.19 1018.25 1018.34 1018.43 1018.52 1018.59 1018.63 1018.65 1018.65
1021.39 1021.35 1021.28 1021.18 1021.09 1021.03 1021.00 1021.00 1021.04 1021.09 1021.11 1021.09 1021.00 1020.81 1020.52 1020.14 1019.70 1019.23 1018.76 1018.35 1018.01 1017.78 1017.64 1017.60 1017.62 1017.68 1017.75 1017.81 1017.85 1017.87 1017.88 1017.89 1017.93 1017.99 1018.08 1018.20 1018.33 1018.46 1018.56 1018.63 1018.64 1018.60 1018.52
1021.84 1021.82 1021.76 1021.68 1021.62 1021.60 1021.61 1021.66 1021.72 1021.77 1021.78 1021.72 1021.56 1021.31 1020.95 1020.51 1020.00 1019.48 1018.96 1018.50 1018.11 1017.82 1017.62 1017.50 1017.45 1017.44 1017.46 1017.48 1017.50 1017.52 1017.55 1017.61 1017.69 1017.82 1017.97 1018.16 1018.34 1018.52 1018.65 1018.72 1018.72 1018.64 1018.49
1022.30 1022.28 1022.22 1022.16 1022.12 1022.12 1022.16 1022.22 1022.29 1022.33 1022.32 1022.22 1022.03 1021.72 1021.32 1020.83 1020.29 1019.73 1019.18 1018.68 1018.25 1017.90 1017.64 1017.45 1017.33 1017.26 1017.21 1017.19 1017.19 1017.21 1017.26 1017.35 1017.48 1017.66 1017.88 1018.12 1018.36 1018.59 1018.76 1018.86 1018.86 1018.77 1018.58
1022.75 1022.71 1022.65 1022.58 1022.54 1022.54 1022.57 1022.63 1022.69 1022.72 1022.68 1022.56 1022.34 1022.01 1021.59 1021.08 1020.53 1019.96 1019.40 1018.87 1018.41 1018.02 1017.70 1017.45 1017.27 1017.13 1017.04 1016.98 1016.96 1016.98 1017.04 1017.15 1017.31 1017.53 1017.79 1018.08 1018.37 1018.64 1018.86 1019.00 1019.04 1018.97 1018.79
1023.17 1023.11 1023.01 1022.91 1022.85 1022.82 1022.83 1022.87 1022.91 1022.91 1022.86 1022.72 1022.49 1022.16 1021.74 1021.25 1020.71 1020.15 1019.59 1019.06 1018.58 1018.15 1017.78 1017.48 1017.24 1017.06 1016.93 1016.84 1016.80 1016.81 1016.88 1017.00 1017.18 1017.41 1017.70 1018.01 1018.34 1018.65 1018.93 1019.13 1019.23 1019.22 1019.11
Thickness
5803 5798 5788 5786 5786 5785 5784 5782 5780 5778 5775 5773 5771 5769 5767 5765 5763 5761 5760 5759 5758 5757 5756 5755 5754 5753 5753 5752 5751 5749 5748 5747 5746 5745 5744 5743 5741 5740 5740 5739 5740 5739 5735
5803 5795 5785 5784 5782 5781 5780 5779 5777 5775 5772 5770 5768 5766 5763 5762 5760 5758 5757 5756 5755 5754 5753 5752 5752 5751 5750 5750 5749 5747 5746 5745 5744 5743 5742 5741 5739 5738 5737 5737 5738 5738 5733
5798 5790 5783 5780 5779 5778 5776 5775 5773 5771 5769 5766 5764 5762 5760 5758 5757 5756 5755 5754 5752 5752 5751 5750 5749 5748 5747 5746 5745 5744 5743 5742 5742 5741 5741 5744 5740 5736 5735 5734 5734 5732 5731
5792 5786 5781 5776 5774 5773 5772 5770 5769 5766 5765 5763 5761 5759 5757 5756 5754 5753 5752 5751 5749 5748 5748 5747 5746 5745 5744 5743 5742 5741 5741 5740 5739 5740 5743 5745 5741 5735 5733 5732 5731 5730 5728
5786 5782 5776 5772 5770 5769 5767 5766 5764 5762 5760 5758 5757 5755 5753 5752 5751 5750 5749 5748 5747 5746 5745 5745 5744 5742 5742 5741 5740 5739 5738 5737 5737 5739 5744 5742 5739 5732 5731 5729 5728 5727 5726
5782 5778 5772 5767 5765 5763 5762 5761 5759 5757 5756 5754 5752 5751 5749 5748 5747 5746 5746 5745 5744 5743 5742 5741 5741 5740 5739 5738 5737 5736 5735 5735 5736 5742 5741 5740 5738 5731 5728 5727 5726 5725 5724
5779 5775 5768 5762 5760 5758 5757 5756 5754 5753 5751 5750 5748 5747 5745 5744 5743 5743 5742 5741 5741 5740 5739 5738 5737 5736 5736 5735 5734 5734 5733 5733 5737 5740 5739 5738 5736 5729 5727 5725 5724 5723 5722
5775 5771 5763 5758 5755 5753 5752 5751 5750 5748 5746 5745 5744 5743 5741 5740 5740 5739 5738 5737 5737 5737 5736 5735 5734 5733 5733 5733 5732 5731 5731 5731 5735 5738 5736 5735 5731 5727 5725 5724 5722 5722 5721
5770 5766 5761 5757 5752 5749 5747 5746 5745 5743 5741 5740 5739 5738 5737 5737 5736 5735 5734 5734 5733 5733 5733 5732 5731 5731 5730 5729 5729 5729 5728 5729 5733 5735 5735 5733 5729 5725 5724 5722 5721 5719 5718
5764 5762 5759 5755 5752 5748 5744 5740 5739 5737 5736 5735 5734 5734 5733 5733 5732 5731 5731 5730 5730 5730 5729 5729 5728 5728 5727 5726 5726 5726 5726 5727 5733 5735 5734 5731 5727 5724 5722 5720 5719 5717 5717
5755 5754 5753 5750 5747 5745 5742 5736 5734 5732 5731 5730 5730 5729 5729 5732 5732 5730 5730 5727 5726 5726 5726 5726 5725 5725 5724 5724 5724 5723 5724 5729 5734 5733 5732 5728 5724 5722 5720 5719 5717 5715 5715
5746 5745 5745 5743 5741 5740 5737 5733 5732 5730 5728 5728 5728 5727 5728 5729 5728 5729 5726 5724 5724 5723 5723 5723 5723 5723 5723 5727 5725 5723 5726 5729 5732 5731 5730 5725 5722 5719 5718 5716 5715 5714 5713
5740 5739 5738 5736 5735 5734 5731 5729 5727 5726 5724 5724 5724 5723 5723 5724 5724 5724 5724 5723 5722 5722 5724 5723 5723 5724 5726 5726 5727 5726 5727 5729 5729 5729 5728 5723 5720 5717 5716 5715 5714 5712 5711
5733 5732 5732 5730 5729 5726 5725 5724 5722 5721 5720 5719 5718 5718 5718 5719 5720 5721 5720 5721 5721 5721 5721 5721 5721 5722 5722 5723 5723 5724 5725 5724 5725 5725 5723 5720 5717 5716 5714 5713 5712 5711 5710
5726 5725 5724 5723 5721 5719 5718 5717 5717 5716 5715 5714 5713 5713 5713 5715 5715 5716 5715 5715 5716 5716 5717 5717 5718 5717 5718 5719 5720 5720 5720 5720 5720 5720 5720 5717 5715 5714 5713 5711 5710 5709 5708
5719 5718 5717 5716 5714 5712 5711 5710 5710 5709 5708 5708 5708 5708 5707 5709 5709 5709 5709 5709 5710 5711 5711 5712 5712 5712 5713 5714 5714 5715 5715 5715 5715 5714 5716 5715 5713 5712 5711 5710 5709 5707 5707
5712 5711 5709 5708 5706 5705 5705 5704 5704 5703 5703 5703 5702 5701 5701 5701 5702 5703 5704 5704 5705 5705 5705 5706 5707 5707 5707 5709 5710 5710 5710 5710 5711 5711 5711 5711 5711 5709 5709 5707 5706 5705 5705
5706 5704 5703 5702 5700 5699 5699 5698 5698 5697 5697 5696 5695 5695 5694 5694 5694 5696 5698 5699 5698 5699 5700 5701 5702 5702 5702 5702 5703 5705 5705 5705 5706 5706 5706 5706 5707 5707 5707 5705 5703 5703 5703
5699 5698 5696 5695 5695 5694 5693 5692 5692 5690 5689 5689 5688 5688 5687 5688 5688 5690 5691 5691 5692 5693 5694 5696 5697 5695 5696 5696 5697 5698 5700 5701 5701 5702 5702 5702 5702 5702 5702 5702 5700 5700 5700
5694 5692 5690 5689 5687 5688 5688 5686 5685 5684 5683 5682 5681 5680 5681 5681 5681 5683 5685 5684 5686 5687 5687 5687 5687 5687 5689 5689 5692 5694 5695 5696 5697 5697 5697 5697 5696 5697 5697 5698 5697 5697 5696
5687 5686 5683 5681 5680 5681 5681 5680 5678 5677 5676 5675 5674 5672 5673 5673 5674 5675 5678 5677 5678 5679 5679 5680 5680 5681 5682 5683 5685 5687 5690 5692 5691 5691 5691 5691 5691 5691 5691 5691 5691 5692 5692
5680 5679 5677 5675 5674 5673 5673 5672 5670 5669 5668 5666 5665 5664 5664 5665 5666 5668 5667 5670 5670 5670 5671 5671 5671 5673 5675 5676 5676 5678 5680 5683 5683 5685 5684 5683 5683 5684 5684 5684 5684 5685 5686
5674 5672 5670 5668 5667 5665 5666 5667 5665 5662 5661 5660 5658 5657 5656 5657 5658 5658 5659 5660 5661 5663 5663 5662 5663 5664 5666 5668 5669 5670 5671 5672 5675 5676 5675 5675 5675 5676 5676 5676 5677 5677 5678
5668 5666 5664 5661 5660 5659 5659 5659 5656 5654 5652 5649 5649 5648 5648 5648 5649 5649 5650 5651 5652 5654 5654 5655 5656 5656 5657 5659 5662 5663 5664 5665 5664 5665 5667 5667 5666 5666 5667 5668 5669 5669 5670
5663 5660 5657 5654 5652 5650 5649 5648 5647 5645 5643 5642 5640 5639 5639 5639 5639 5639 5640 5641 5642 5644 5644 5645 5646 5648 5650 5650 5652 5654 5656 5658 5659 5658 5657 5656 5656 5657 5658 5658 5659 5661 5661
5657 5654 5651 5647 5643 5641 5639 5639 5637 5634 5633 5632 5631 5631 5631 5631 5630 5629 5631 5631 5632 5633 5634 5636 5637 5640 5640 5641 5643 5645 5646 5648 5650 5651 5649 5648 5647 5647 5648 5649 5650 5652 5652